Theta_e
302 301 300 300 299 298 297 298 300 300 299 297 295 293 290 288 288 288 288 287 287 286 286 286 286 286 286
302 302 301 300 298 297 296 298 299 299 299 296 295 292 289 288 288 288 287 287 287 286 286 286 285 285 284
304 303 302 301 299 298 297 298 298 298 298 295 295 291 288 288 288 287 287 286 286 286 286 285 284 284 284
303 303 302 301 299 298 297 297 298 298 297 296 295 290 288 288 287 287 286 286 285 285 285 284 284 284 284
302 303 302 301 301 299 297 296 297 297 296 295 294 290 288 287 287 286 286 285 285 285 284 284 284 284 284
301 301 302 302 301 300 297 296 297 297 296 295 293 290 288 287 286 286 286 285 285 284 284 284 284 284 283
300 300 300 300 301 299 297 297 297 295 295 297 292 289 287 287 286 286 285 285 284 284 283 283 283 284 283
300 299 298 299 299 297 295 296 295 295 298 295 290 288 287 287 286 285 285 285 284 283 283 283 283 283 283
300 299 298 300 298 296 296 296 295 297 297 292 289 287 287 287 286 285 285 284 284 283 283 282 282 282 282
300 299 298 298 296 295 294 294 295 297 294 291 288 287 286 286 285 285 284 283 283 283 283 282 282 282 282
298 299 297 296 295 295 294 294 296 295 292 289 286 286 286 285 285 284 284 283 283 283 283 283 282 282 282
299 298 296 295 294 294 293 295 296 294 290 287 287 285 285 285 285 284 284 283 283 283 283 283 282 282 281
298 296 294 293 293 293 295 295 294 292 288 288 286 285 284 284 284 284 284 284 283 282 283 282 281 281 282
297 294 293 293 292 294 295 295 294 290 288 286 285 285 284 283 283 283 283 282 282 282 282 282 281 281 281
297 293 292 291 293 294 295 294 292 288 286 285 285 285 284 283 283 282 282 282 281 281 281 281 281 281 280
296 292 291 292 294 294 294 293 288 287 285 284 284 284 283 283 283 282 281 281 281 281 280 281 281 281 281
292 292 291 292 294 295 293 289 288 284 284 284 284 283 284 284 282 281 281 280 280 280 280 279 280 281 281
Wind_Speed
22 19 21 19 15 13 11 8 6 5 8 11 14 15 13 12 14 16 17 18 18 18 18 21 23 24 25
20 23 21 19 17 15 13 9 8 7 8 10 14 14 12 13 15 16 17 17 17 18 19 22 24 25 27
13 20 20 21 19 17 14 12 9 8 8 10 14 13 12 14 15 16 17 17 16 18 21 23 25 27 28
11 14 18 19 19 17 15 13 11 9 9 11 14 12 12 14 15 16 16 16 17 20 22 23 25 27 28
12 15 17 19 18 17 16 14 12 10 9 11 13 13 13 14 15 15 16 16 18 21 23 24 25 27 29
12 13 14 16 16 16 16 15 12 11 9 12 13 13 13 14 15 15 14 15 19 22 24 24 26 28 30
9 9 10 11 13 16 16 14 12 10 10 13 13 13 13 14 16 14 14 16 20 23 25 25 27 29 31
13 11 11 10 12 12 11 13 12 9 11 14 13 12 12 14 15 11 14 17 21 24 26 27 29 30 31
13 13 13 12 14 16 16 13 10 9 12 13 13 11 13 12 11 10 15 18 22 24 25 27 30 31 32
13 13 14 15 15 15 14 11 9 9 11 12 11 11 9 9 8 12 15 17 23 24 26 30 30 33 35
12 12 14 14 15 15 13 11 8 10 12 10 10 11 11 11 9 11 14 19 21 24 26 30 30 32 36
14 14 16 16 15 15 13 10 9 11 10 8 11 11 11 12 12 13 18 21 24 26 31 32 30 30 30
15 15 16 15 14 14 11 9 10 10 8 10 10 10 11 11 14 17 22 23 24 31 30 33 33 34 36
14 16 17 15 15 13 10 9 10 9 9 9 10 12 12 11 13 17 21 21 27 28 31 33 32 32 31
18 17 18 16 15 12 10 10 10 8 8 9 10 11 11 13 15 18 18 24 27 31 34 37 34 33 32
19 18 17 16 15 11 11 11 9 9 8 9 10 11 11 12 16 14 20 26 30 31 33 37 37 33 31
19 18 18 18 13 11 11 10 9 8 8 9 10 11 12 14 15 17 25 28 32 33 33 34 34 33 32
Wind_Direction
211 208 208 211 211 213 219 227 245 285 319 338 343 342 340 345 346 347 347 349 354 358 358 356 354 351 352
209 208 208 209 211 215 220 227 242 277 310 329 335 335 334 341 342 341 340 348 352 355 352 351 353 350 350
216 212 211 210 214 218 220 228 243 267 295 322 326 330 330 335 334 332 340 343 348 349 349 350 351 349 348
211 213 216 214 215 221 224 232 242 261 288 308 322 324 320 327 327 332 336 341 345 346 347 348 349 347 345
217 216 217 217 225 224 225 229 242 260 282 306 316 318 317 317 322 327 333 338 341 341 344 345 346 345 342
230 232 233 233 224 229 230 232 244 264 281 305 314 310 308 312 319 321 328 331 337 339 340 342 346 343 340
234 236 239 241 237 236 234 236 246 264 289 312 313 306 301 311 313 310 322 329 335 337 337 339 342 341 339
230 223 221 220 230 233 235 236 245 263 300 308 309 304 308 312 303 293 321 326 335 337 337 336 340 339 337
228 232 228 232 223 224 228 237 243 275 306 306 308 309 318 311 302 288 316 323 331 333 335 335 337 336 334
231 229 231 228 220 214 220 229 244 294 308 308 309 318 322 313 317 303 313 323 329 331 334 338 339 335 334
229 237 233 223 216 215 223 231 261 298 305 305 309 309 307 306 310 310 314 325 330 334 336 339 342 336 332
229 227 221 216 214 216 221 238 275 298 302 298 303 307 310 312 317 322 321 332 334 340 339 339 339 336 335
223 221 215 211 216 218 224 254 288 301 290 292 295 306 312 312 322 331 330 334 333 336 337 338 344 341 338
215 217 211 213 217 219 237 274 293 283 283 290 302 312 316 319 325 329 326 328 332 334 337 340 348 346 344
218 215 214 215 214 225 255 283 277 271 276 288 304 311 313 321 329 329 326 330 333 339 339 340 352 351 349
217 213 215 216 218 238 273 270 261 266 275 296 310 310 312 319 326 328 328 334 340 342 340 340 347 354 350
208 213 216 213 225 258 252 244 252 263 288 299 307 313 318 326 337 341 338 339 337 339 341 342 346 350 348